NWK0363 YPPH-YPPD

Flight info

Callsign NWK0363
Flight time 1h 50m
Altitude 35000
Route AVNEX Y15 ESDEG Y44 PD
Aircraft A320/M-SDE3FGHIRWYZ/EB1

Departure

Time 2026-04-27 08:58
Airport Perth International Airport (YPPH)

Arrival

Time 2026-04-27 10:48
Airport Port Hedland International Airport (YPPD)
Time Latitude Longitude Altitude Speed Heading
2026-04-27 06:12 -31.94012 115.97589 66 ft 0 kts 193°
2026-04-27 08:41 -31.93999 115.97592 66 ft 3 kts 195°
2026-04-27 08:42 -31.93980 115.97599 66 ft 3 kts 199°
2026-04-27 08:42 -31.93961 115.97608 66 ft 3 kts 208°
2026-04-27 08:42 -31.93945 115.97620 66 ft 3 kts 232°
2026-04-27 08:42 -31.93937 115.97636 66 ft 1 kts 280°
2026-04-27 08:43 -31.93938 115.97639 66 ft 0 kts 283°
2026-04-27 08:49 -31.93936 115.97630 66 ft 3 kts 283°
2026-04-27 08:50 -31.93929 115.97584 66 ft 8 kts 277°
2026-04-27 08:50 -31.93924 115.97515 60 ft 9 kts 272°
2026-04-27 08:50 -31.93921 115.97438 66 ft 10 kts 273°
2026-04-27 08:50 -31.93879 115.97380 58 ft 10 kts 329°
2026-04-27 08:51 -31.93811 115.97332 59 ft 12 kts 328°
2026-04-27 08:51 -31.93728 115.97274 55 ft 16 kts 329°
2026-04-27 08:51 -31.93660 115.97226 59 ft 8 kts 329°
2026-04-27 08:51 -31.93613 115.97193 57 ft 6 kts 329°
2026-04-27 08:52 -31.93570 115.97162 50 ft 9 kts 329°
2026-04-27 08:52 -31.93516 115.97122 56 ft 9 kts 327°
2026-04-27 08:52 -31.93459 115.97082 56 ft 10 kts 329°
2026-04-27 08:52 -31.93393 115.97043 56 ft 12 kts 351°
2026-04-27 08:53 -31.93307 115.97068 55 ft 14 kts 14°
2026-04-27 08:53 -31.93202 115.97099 53 ft 17 kts 14°
2026-04-27 08:53 -31.93095 115.97130 53 ft 9 kts 14°
2026-04-27 08:53 -31.93028 115.97149 53 ft 11 kts 14°
2026-04-27 08:54 -31.92954 115.97167 53 ft 6 kts 355°
2026-04-27 08:54 -31.92940 115.97123 53 ft 7 kts 282°
2026-04-27 08:54 -31.92931 115.97081 53 ft 0 kts 283°
2026-04-27 08:55 -31.92930 115.97076 52 ft 3 kts 283°
2026-04-27 08:56 -31.92921 115.97030 52 ft 9 kts 284°
2026-04-27 08:56 -31.92902 115.96947 52 ft 11 kts 284°
2026-04-27 08:56 -31.92882 115.96855 53 ft 7 kts 284°
2026-04-27 08:56 -31.92895 115.96837 53 ft 4 kts 198°
2026-04-27 08:57 -31.92902 115.96835 52 ft 2 kts 195°
2026-04-27 08:57 -31.92964 115.96815 51 ft 27 kts 195°
2026-04-27 08:57 -31.93392 115.96689 51 ft 95 kts 195°
2026-04-27 08:58 -31.94198 115.96455 61 ft 142 kts 194°
2026-04-27 08:58 -31.95284 115.96142 213 ft 168 kts 194°
2026-04-27 08:58 -31.96404 115.95822 841 ft 165 kts 195°
2026-04-27 08:58 -31.97521 115.95496 1439 ft 166 kts 195°
2026-04-27 08:59 -31.98653 115.95164 1892 ft 173 kts 196°
2026-04-27 08:59 -31.99897 115.94796 2110 ft 194 kts 197°
2026-04-27 08:59 -32.01257 115.94314 2294 ft 215 kts 211°
2026-04-27 08:59 -32.02301 115.93059 2521 ft 227 kts 251°
2026-04-27 09:00 -32.02489 115.91179 2925 ft 242 kts 281°
2026-04-27 09:00 -32.02228 115.89189 3629 ft 250 kts 284°
2026-04-27 09:00 -32.01954 115.87169 4526 ft 249 kts 283°
2026-04-27 09:00 -32.01688 115.85172 5489 ft 248 kts 282°
2026-04-27 09:01 -32.01424 115.83161 6470 ft 245 kts 282°
2026-04-27 09:01 -32.01166 115.81189 7431 ft 243 kts 282°
2026-04-27 09:01 -32.00903 115.79183 8237 ft 246 kts 282°
2026-04-27 09:01 -32.00646 115.77223 8957 ft 249 kts 284°
2026-04-27 09:02 -32.00072 115.75341 9859 ft 235 kts 304°
2026-04-27 09:02 -31.98990 115.73987 10918 ft 226 kts 323°
2026-04-27 09:02 -31.97525 115.73259 11591 ft 236 kts 345°
2026-04-27 09:02 -31.95837 115.73316 12182 ft 250 kts
2026-04-27 09:03 -31.94041 115.73630 12407 ft 273 kts
2026-04-27 09:03 -31.92077 115.73970 12545 ft 297 kts
2026-04-27 09:03 -31.89957 115.74337 12673 ft 319 kts
2026-04-27 09:03 -31.87698 115.74732 12913 ft 336 kts
2026-04-27 09:04 -31.85366 115.75148 13459 ft 341 kts
2026-04-27 09:04 -31.83010 115.75570 14065 ft 344 kts
2026-04-27 09:04 -31.80629 115.75992 14646 ft 348 kts
2026-04-27 09:04 -31.78225 115.76412 15225 ft 351 kts
2026-04-27 09:05 -31.75796 115.76834 15802 ft 354 kts
2026-04-27 09:05 -31.73352 115.77259 16373 ft 356 kts
2026-04-27 09:05 -31.70888 115.77686 16909 ft 360 kts
2026-04-27 09:05 -31.68400 115.78115 17469 ft 362 kts
2026-04-27 09:06 -31.65894 115.78545 18011 ft 365 kts
2026-04-27 09:06 -31.63369 115.78977 18547 ft 368 kts
2026-04-27 09:06 -31.60822 115.79412 19099 ft 371 kts
2026-04-27 09:06 -31.58257 115.79849 19650 ft 374 kts
2026-04-27 09:07 -31.55673 115.80293 20193 ft 377 kts
2026-04-27 09:07 -31.53068 115.80742 20717 ft 380 kts
2026-04-27 09:07 -31.50445 115.81195 21229 ft 382 kts
2026-04-27 09:07 -31.47805 115.81652 21721 ft 385 kts
2026-04-27 09:08 -31.45146 115.82110 22206 ft 387 kts
2026-04-27 09:08 -31.42477 115.82567 22669 ft 389 kts
2026-04-27 09:08 -31.39789 115.83026 23134 ft 391 kts
2026-04-27 09:08 -31.37090 115.83487 23570 ft 393 kts
2026-04-27 09:09 -31.34377 115.83952 24004 ft 395 kts
2026-04-27 09:09 -31.31657 115.84416 24413 ft 397 kts
2026-04-27 09:09 -31.28914 115.84884 24795 ft 399 kts
2026-04-27 09:09 -31.26156 115.85357 25174 ft 402 kts
2026-04-27 09:10 -31.23380 115.85834 25546 ft 404 kts
2026-04-27 09:10 -31.20587 115.86315 25891 ft 407 kts
2026-04-27 09:10 -31.17776 115.86793 26238 ft 410 kts
2026-04-27 09:10 -31.14945 115.87274 26579 ft 412 kts
2026-04-27 09:11 -31.12139 115.87750 26901 ft 414 kts
2026-04-27 09:11 -31.09241 115.88239 27241 ft 417 kts
2026-04-27 09:11 -31.06363 115.88726 27535 ft 420 kts
2026-04-27 09:11 -31.03502 115.89210 27839 ft 422 kts
2026-04-27 09:12 -31.00551 115.89709 28150 ft 424 kts
2026-04-27 09:12 -30.97659 115.90200 28453 ft 427 kts
2026-04-27 09:12 -30.94711 115.90701 28754 ft 429 kts
2026-04-27 09:12 -30.91748 115.91203 29040 ft 431 kts
2026-04-27 09:13 -30.88774 115.91709 29350 ft 433 kts
2026-04-27 09:13 -30.85786 115.92218 29760 ft 433 kts
2026-04-27 09:13 -30.82806 115.92726 30159 ft 432 kts
2026-04-27 09:13 -30.79833 115.93231 30572 ft 431 kts
2026-04-27 09:14 -30.76864 115.93736 30976 ft 430 kts
2026-04-27 09:14 -30.73905 115.94240 31372 ft 429 kts
2026-04-27 09:14 -30.70952 115.94743 31763 ft 428 kts
2026-04-27 09:14 -30.68004 115.95241 32156 ft 427 kts
2026-04-27 09:15 -30.65068 115.95733 32553 ft 426 kts
2026-04-27 09:15 -30.62134 115.96223 32942 ft 425 kts
2026-04-27 09:15 -30.59212 115.96710 33341 ft 424 kts
2026-04-27 09:15 -30.56295 115.97199 33736 ft 422 kts
2026-04-27 09:16 -30.53393 115.97689 34115 ft 421 kts
2026-04-27 09:16 -30.51472 115.98015 34364 ft 420 kts
2026-04-27 09:16 -30.48581 115.98502 34694 ft 419 kts
2026-04-27 09:16 -30.45699 115.98988 34957 ft 419 kts
2026-04-27 09:17 -30.42803 115.99473 35021 ft 423 kts
2026-04-27 09:17 -30.36918 116.00461 35027 ft 430 kts
2026-04-27 09:18 -30.30993 116.01459 35027 ft 431 kts
2026-04-27 09:18 -30.25057 116.02444 35026 ft 431 kts
2026-04-27 09:19 -30.19117 116.03437 35018 ft 431 kts
2026-04-27 09:19 -30.13175 116.04437 35018 ft 432 kts
2026-04-27 09:20 -30.07229 116.05425 35022 ft 432 kts
2026-04-27 09:20 -30.01280 116.06417 35025 ft 432 kts
2026-04-27 09:21 -29.95326 116.07408 35029 ft 432 kts
2026-04-27 09:21 -29.89377 116.08389 35031 ft 432 kts
2026-04-27 09:22 -29.83460 116.09371 35032 ft 432 kts
2026-04-27 09:22 -29.77507 116.10357 35034 ft 432 kts
2026-04-27 09:23 -29.71556 116.11339 35035 ft 432 kts
2026-04-27 09:23 -29.65603 116.12324 35036 ft 432 kts
2026-04-27 09:24 -29.59655 116.13303 35037 ft 431 kts
2026-04-27 09:24 -29.53713 116.14279 35037 ft 431 kts
2026-04-27 09:25 -29.47773 116.15257 35037 ft 431 kts
2026-04-27 09:25 -29.41844 116.16242 35037 ft 431 kts
2026-04-27 09:26 -29.35913 116.17222 35037 ft 430 kts
2026-04-27 09:26 -29.29989 116.18182 35035 ft 430 kts
2026-04-27 09:27 -29.24072 116.19153 35035 ft 429 kts
2026-04-27 09:27 -29.18166 116.20128 35031 ft 428 kts
2026-04-27 09:28 -29.12266 116.21094 35028 ft 428 kts 360°
2026-04-27 09:28 -29.06374 116.22058 35026 ft 428 kts 360°
2026-04-27 09:29 -29.00492 116.23012 35027 ft 427 kts 359°
2026-04-27 09:29 -28.94652 116.23957 35027 ft 427 kts 359°
2026-04-27 09:30 -28.88732 116.24925 35027 ft 426 kts 359°
2026-04-27 09:30 -28.82905 116.25877 35028 ft 426 kts 359°
2026-04-27 09:31 -28.77033 116.26829 35025 ft 426 kts 359°
2026-04-27 09:31 -28.71174 116.27776 35027 ft 425 kts 359°
2026-04-27 09:32 -28.65331 116.28719 35029 ft 424 kts 359°
2026-04-27 09:32 -28.59495 116.29668 35028 ft 423 kts 359°
2026-04-27 09:33 -28.53665 116.30614 35027 ft 423 kts 358°
2026-04-27 09:33 -28.47847 116.31557 35029 ft 422 kts 358°
2026-04-27 09:34 -28.42027 116.32496 35028 ft 422 kts 358°
2026-04-27 09:34 -28.36211 116.33429 35029 ft 422 kts 358°
2026-04-27 09:35 -28.30408 116.34364 35029 ft 421 kts 358°
2026-04-27 09:35 -28.24607 116.35304 35028 ft 421 kts 358°
2026-04-27 09:36 -28.18811 116.36232 35028 ft 420 kts 358°
2026-04-27 09:36 -28.13020 116.37154 35023 ft 420 kts 358°
2026-04-27 09:37 -28.07241 116.38077 35021 ft 419 kts 358°
2026-04-27 09:37 -28.01464 116.38995 35023 ft 419 kts 358°
2026-04-27 09:38 -27.95694 116.39920 35032 ft 419 kts 358°
2026-04-27 09:38 -27.89923 116.40847 35035 ft 419 kts 358°
2026-04-27 09:39 -27.84185 116.41765 35036 ft 419 kts 358°
2026-04-27 09:39 -27.78409 116.42688 35038 ft 419 kts 358°
2026-04-27 09:40 -27.72631 116.43780 35036 ft 427 kts
2026-04-27 09:40 -27.66861 116.45374 35040 ft 427 kts
2026-04-27 09:41 -27.61083 116.46967 35038 ft 427 kts
2026-04-27 09:41 -27.55304 116.48551 35043 ft 427 kts
2026-04-27 09:42 -27.49525 116.50139 35039 ft 427 kts
2026-04-27 09:42 -27.43743 116.51723 35035 ft 428 kts
2026-04-27 09:43 -27.37961 116.53311 35031 ft 428 kts
2026-04-27 09:43 -27.32167 116.54902 35030 ft 428 kts
2026-04-27 09:44 -27.26372 116.56478 35029 ft 428 kts
2026-04-27 09:44 -27.20575 116.58060 35031 ft 429 kts
2026-04-27 09:45 -27.14774 116.59640 35033 ft 429 kts
2026-04-27 09:45 -27.08969 116.61220 35033 ft 429 kts
2026-04-27 09:46 -27.03205 116.62788 35032 ft 429 kts
2026-04-27 09:46 -26.97402 116.64362 35033 ft 429 kts
2026-04-27 09:47 -26.91595 116.65944 35030 ft 429 kts
2026-04-27 09:47 -26.85782 116.67517 35027 ft 430 kts
2026-04-27 09:48 -26.79964 116.69093 35027 ft 430 kts
2026-04-27 09:48 -26.74141 116.70679 35026 ft 431 kts
2026-04-27 09:49 -26.68317 116.72254 35025 ft 431 kts
2026-04-27 09:49 -26.62491 116.73822 35025 ft 431 kts
2026-04-27 09:50 -26.56668 116.75390 35022 ft 430 kts
2026-04-27 09:50 -26.50847 116.76953 35023 ft 431 kts
2026-04-27 09:51 -26.45011 116.78526 35023 ft 431 kts
2026-04-27 09:51 -26.39179 116.80103 35023 ft 431 kts
2026-04-27 09:52 -26.33341 116.81671 35023 ft 431 kts
2026-04-27 09:52 -26.27508 116.83232 35021 ft 431 kts
2026-04-27 09:53 -26.21716 116.84787 35021 ft 431 kts
2026-04-27 09:53 -26.15886 116.86360 35015 ft 431 kts
2026-04-27 09:54 -26.10058 116.87916 35017 ft 431 kts
2026-04-27 09:54 -26.04227 116.89468 35018 ft 431 kts
2026-04-27 09:55 -25.98389 116.91032 35013 ft 431 kts
2026-04-27 09:55 -25.89621 116.93369 35004 ft 433 kts
2026-04-27 09:56 -25.83756 116.94924 35000 ft 434 kts
2026-04-27 09:56 -25.77876 116.96484 35010 ft 434 kts
2026-04-27 09:57 -25.71998 116.98053 35012 ft 435 kts
2026-04-27 09:57 -25.66110 116.99618 35003 ft 435 kts
2026-04-27 09:58 -25.60225 117.01175 35001 ft 435 kts
2026-04-27 09:58 -25.54335 117.02727 35006 ft 435 kts
2026-04-27 09:59 -25.48446 117.04289 34997 ft 435 kts
2026-04-27 09:59 -25.42553 117.05860 35001 ft 436 kts
2026-04-27 10:00 -25.36661 117.07415 35005 ft 435 kts
2026-04-27 10:00 -25.30767 117.08970 34996 ft 435 kts
2026-04-27 10:01 -25.24873 117.10521 35001 ft 436 kts
2026-04-27 10:01 -25.18972 117.12072 34990 ft 436 kts
2026-04-27 10:02 -25.13061 117.13628 34987 ft 437 kts
2026-04-27 10:02 -25.07143 117.15183 34989 ft 437 kts
2026-04-27 10:03 -25.02224 117.16467 34997 ft 437 kts
2026-04-27 10:03 -24.95303 117.18286 34990 ft 438 kts
2026-04-27 10:04 -24.89421 117.19830 34990 ft 438 kts
2026-04-27 10:04 -24.83499 117.21382 34990 ft 437 kts
2026-04-27 10:05 -24.78575 117.22666 34992 ft 437 kts
2026-04-27 10:05 -24.72647 117.24212 34985 ft 438 kts
2026-04-27 10:06 -24.66714 117.25761 34984 ft 438 kts
2026-04-27 10:06 -24.60777 117.27310 34983 ft 439 kts
2026-04-27 10:07 -24.54833 117.28857 34982 ft 439 kts
2026-04-27 10:07 -24.48892 117.30410 34981 ft 439 kts
2026-04-27 10:08 -24.42938 117.31964 34980 ft 440 kts
2026-04-27 10:08 -24.36983 117.33502 34978 ft 440 kts
2026-04-27 10:09 -24.31020 117.35047 34979 ft 440 kts
2026-04-27 10:09 -24.25054 117.36592 34978 ft 441 kts
2026-04-27 10:10 -24.19082 117.38141 34979 ft 441 kts
2026-04-27 10:10 -24.13104 117.39690 34980 ft 442 kts
2026-04-27 10:11 -24.07160 117.41224 34982 ft 442 kts
2026-04-27 10:11 -24.01173 117.42775 34980 ft 442 kts
2026-04-27 10:12 -23.95178 117.44323 34979 ft 443 kts
2026-04-27 10:12 -23.89177 117.45864 34975 ft 443 kts
2026-04-27 10:13 -23.83172 117.47409 34975 ft 443 kts
2026-04-27 10:13 -23.77159 117.48951 34973 ft 443 kts
2026-04-27 10:14 -23.71149 117.50495 34975 ft 444 kts
2026-04-27 10:14 -23.65140 117.52032 34976 ft 444 kts
2026-04-27 10:15 -23.59129 117.53577 34977 ft 444 kts
2026-04-27 10:15 -23.53121 117.55121 34976 ft 444 kts
2026-04-27 10:16 -23.47111 117.56659 34976 ft 444 kts
2026-04-27 10:16 -23.41101 117.58199 34979 ft 443 kts
2026-04-27 10:17 -23.35096 117.59731 34979 ft 443 kts
2026-04-27 10:17 -23.29084 117.61267 34978 ft 444 kts
2026-04-27 10:18 -23.23076 117.62800 34980 ft 443 kts
2026-04-27 10:18 -23.17108 117.64314 34979 ft 443 kts
2026-04-27 10:19 -23.11104 117.65841 34977 ft 443 kts
2026-04-27 10:19 -23.05098 117.67375 34976 ft 443 kts
2026-04-27 10:20 -22.99091 117.68894 34975 ft 443 kts
2026-04-27 10:20 -22.93085 117.70413 34971 ft 443 kts
2026-04-27 10:21 -22.87073 117.71945 34970 ft 444 kts
2026-04-27 10:21 -22.81060 117.73470 34973 ft 444 kts
2026-04-27 10:22 -22.75043 117.74995 34974 ft 444 kts
2026-04-27 10:22 -22.69025 117.76525 34974 ft 444 kts
2026-04-27 10:23 -22.63006 117.78046 34970 ft 444 kts
2026-04-27 10:23 -22.56984 117.79555 34966 ft 445 kts
2026-04-27 10:24 -22.50957 117.81076 34964 ft 445 kts
2026-04-27 10:24 -22.44930 117.82603 34965 ft 445 kts
2026-04-27 10:25 -22.38899 117.84122 34965 ft 445 kts
2026-04-27 10:25 -22.32867 117.85634 34964 ft 445 kts
2026-04-27 10:26 -22.26825 117.87150 34962 ft 446 kts
2026-04-27 10:26 -22.20821 117.88663 34961 ft 446 kts
2026-04-27 10:27 -22.14774 117.90178 34962 ft 446 kts
2026-04-27 10:27 -22.08720 117.91692 34962 ft 446 kts
2026-04-27 10:28 -22.02665 117.93203 34965 ft 447 kts
2026-04-27 10:28 -21.96613 117.94720 34967 ft 446 kts
2026-04-27 10:29 -21.90566 117.96232 34967 ft 446 kts
2026-04-27 10:29 -21.84526 117.97814 34964 ft 452 kts 13°
2026-04-27 10:30 -21.81644 117.99263 34760 ft 461 kts 21°
2026-04-27 10:30 -21.78818 118.00916 34090 ft 464 kts 22°
2026-04-27 10:30 -21.75987 118.02617 33294 ft 468 kts 23°
2026-04-27 10:30 -21.73148 118.04347 32496 ft 470 kts 23°
2026-04-27 10:31 -21.70291 118.06093 31618 ft 474 kts 24°
2026-04-27 10:31 -21.67419 118.07839 30740 ft 476 kts 24°
2026-04-27 10:31 -21.64526 118.09582 29794 ft 478 kts 25°
2026-04-27 10:31 -21.61611 118.11325 28838 ft 480 kts 25°
2026-04-27 10:32 -21.58685 118.13065 27883 ft 481 kts 25°
2026-04-27 10:32 -21.55754 118.14804 26941 ft 482 kts 25°
2026-04-27 10:32 -21.52823 118.16546 26012 ft 480 kts 26°
2026-04-27 10:32 -21.49901 118.18285 25076 ft 479 kts 26°
2026-04-27 10:33 -21.46992 118.20020 24152 ft 478 kts 26°
2026-04-27 10:33 -21.44095 118.21748 23223 ft 475 kts 26°
2026-04-27 10:33 -21.41208 118.23469 22295 ft 473 kts 27°
2026-04-27 10:33 -21.38340 118.25178 21367 ft 470 kts 27°
2026-04-27 10:34 -21.35485 118.26876 20439 ft 467 kts 27°
2026-04-27 10:34 -21.32653 118.28558 19558 ft 464 kts 27°
2026-04-27 10:34 -21.29878 118.30205 19244 ft 447 kts 26°
2026-04-27 10:34 -21.27211 118.31791 18919 ft 432 kts 27°
2026-04-27 10:35 -21.24633 118.33325 18307 ft 428 kts 27°
2026-04-27 10:35 -21.22005 118.34885 17621 ft 426 kts 27°
2026-04-27 10:35 -21.19467 118.36391 17109 ft 420 kts 27°
2026-04-27 10:35 -21.16913 118.37906 16535 ft 416 kts 27°
2026-04-27 10:36 -21.14385 118.39405 15851 ft 416 kts 27°
2026-04-27 10:36 -21.11882 118.40889 15440 ft 408 kts 27°
2026-04-27 10:36 -21.09409 118.42354 14821 ft 405 kts 27°
2026-04-27 10:36 -21.06953 118.43806 14222 ft 401 kts 27°
2026-04-27 10:37 -21.04516 118.45245 13618 ft 398 kts 28°
2026-04-27 10:37 -21.02103 118.46673 13016 ft 394 kts 28°
2026-04-27 10:37 -20.99714 118.48088 12392 ft 391 kts 28°
2026-04-27 10:37 -20.97346 118.49487 11756 ft 387 kts 28°
2026-04-27 10:38 -20.94999 118.50872 11127 ft 383 kts 28°
2026-04-27 10:38 -20.92688 118.52238 10746 ft 373 kts 28°
2026-04-27 10:38 -20.90470 118.53548 10618 ft 356 kts 28°
2026-04-27 10:38 -20.88343 118.54805 10491 ft 342 kts 29°
2026-04-27 10:39 -20.86305 118.56009 10364 ft 329 kts 29°
2026-04-27 10:39 -20.84339 118.57170 10238 ft 317 kts 29°
2026-04-27 10:39 -20.82442 118.58290 10112 ft 306 kts 30°
2026-04-27 10:39 -20.80604 118.59373 9914 ft 299 kts 30°
2026-04-27 10:40 -20.78790 118.60443 9585 ft 296 kts 30°
2026-04-27 10:40 -20.76993 118.61503 9252 ft 294 kts 30°
2026-04-27 10:40 -20.75215 118.62552 8867 ft 289 kts 30°
2026-04-27 10:40 -20.73462 118.63584 8245 ft 287 kts 30°
2026-04-27 10:41 -20.71726 118.64605 7636 ft 284 kts 30°
2026-04-27 10:41 -20.70007 118.65616 7022 ft 280 kts 30°
2026-04-27 10:41 -20.68306 118.66616 6407 ft 278 kts 30°
2026-04-27 10:41 -20.66620 118.67609 5811 ft 275 kts 30°
2026-04-27 10:42 -20.64960 118.68585 5365 ft 266 kts 30°
2026-04-27 10:42 -20.63404 118.69502 5249 ft 246 kts 30°
2026-04-27 10:42 -20.61967 118.70350 5146 ft 229 kts 30°
2026-04-27 10:42 -20.60598 118.71159 5044 ft 220 kts 30°
2026-04-27 10:43 -20.59292 118.71925 4947 ft 209 kts 30°
2026-04-27 10:43 -20.58034 118.72644 4718 ft 204 kts 29°
2026-04-27 10:43 -20.56772 118.73338 4418 ft 204 kts 28°
2026-04-27 10:43 -20.55512 118.74026 4137 ft 203 kts 28°
2026-04-27 10:44 -20.54264 118.74708 3862 ft 201 kts 29°
2026-04-27 10:44 -20.53047 118.75361 3628 ft 196 kts 25°
2026-04-27 10:44 -20.51705 118.75549 3331 ft 198 kts 353°
2026-04-27 10:44 -20.50480 118.74907 3054 ft 200 kts 321°
2026-04-27 10:45 -20.49488 118.73907 2780 ft 191 kts 320°
2026-04-27 10:45 -20.48547 118.72984 2530 ft 176 kts 321°
2026-04-27 10:45 -20.47669 118.72134 2312 ft 166 kts 318°
2026-04-27 10:45 -20.46828 118.71322 2095 ft 161 kts 317°
2026-04-27 10:46 -20.46014 118.70532 1879 ft 157 kts 315°
2026-04-27 10:46 -20.45216 118.69757 1670 ft 153 kts 315°
2026-04-27 10:46 -20.44436 118.69005 1464 ft 150 kts 314°
2026-04-27 10:46 -20.43675 118.68266 1274 ft 147 kts 315°
2026-04-27 10:47 -20.42932 118.67548 1081 ft 142 kts 318°
2026-04-27 10:47 -20.42209 118.66844 892 ft 141 kts 318°
2026-04-27 10:47 -20.41485 118.66141 711 ft 141 kts 318°
2026-04-27 10:47 -20.40769 118.65442 520 ft 139 kts 318°
2026-04-27 10:48 -20.40055 118.64739 320 ft 140 kts 318°
2026-04-27 10:48 -20.39336 118.64047 162 ft 141 kts 322°
2026-04-27 10:48 -20.38649 118.63377 34 ft 120 kts 314°
2026-04-27 10:48 -20.38316 118.63036 35 ft 24 kts 328°
2026-04-27 10:49 -20.38301 118.63026 34 ft 1 kts 328°
2026-04-27 10:49 -20.38285 118.63015 33 ft 4 kts 328°
2026-04-27 10:49 -20.38254 118.62987 33 ft 7 kts 317°
2026-04-27 10:49 -20.38196 118.62928 33 ft 19 kts 316°
2026-04-27 10:50 -20.38108 118.62849 33 ft 13 kts 348°
2026-04-27 10:50 -20.38038 118.62898 31 ft 12 kts 46°
2026-04-27 10:50 -20.37982 118.62961 31 ft 10 kts 47°
2026-04-27 10:50 -20.37971 118.62975 33 ft 0 kts 50°
2026-04-27 10:53 -20.37960 118.62989 33 ft 7 kts 50°
2026-04-27 10:53 -20.37906 118.63044 33 ft 13 kts 36°
2026-04-27 10:54 -20.37871 118.63082 33 ft 7 kts 47°
2026-04-27 10:54 -20.37857 118.63098 33 ft 0 kts 48°